Location: Cassano d�Adda
(45.5333°N, 9.5167°E)
Time: 20:54:49
(UTC+00:00)

NOSS 2 (A) - Pass Details

Date: 08 December 2019
Orbit: 273 x 1575 km, 63.3° (Epoch: 06 February)

Event Time Altitude Azimuth Distance (km) Brightness Sun altitude
Rises 16:43:20 0° 319° (NW) 2,036 8.5 -11.0°
Reaches altitude 10° 16:45:21 10° 317° (NW) 1,148 7.3 -11.3°
Maximum altitude 16:47:46 66° 234° (SW) 308 4.3 -11.7°
Drops below altitude 10° 16:50:04 10° 151° (SSE) 1,097 6.8 -12.1°
Sets 16:51:57 0° 148° (SSE) 1,928 8.0 -12.4°
